Breckenridge, CO

10:26 PM MDT on July 27, 2016 (GMT -0600)
Copper Mountain

Weather History for KCCU - September, 2013

Change the Weather History Date:

Tuesday, September 3, 2013

  Actual Average (KLXV) Record (KLXV)
Temperature  
Mean Temperature 58 °F -  
Max Temperature 66 °F 62 °F 76 °F (1990)
Min Temperature 51 °F 35 °F 24 °F (1993)
Degree Days  
Heating Degree Days 6    
Growing Degree Days 8 (Base 50)    
Moisture  
Dew Point 41 °F    
Average Humidity 56    
Maximum Humidity 72    
Minimum Humidity 30    
Precipitation  
Precipitation 0.24 in - - ()
Sea Level Pressure  
Sea Level Pressure 30.73 in    
Wind  
Wind Speed 11 mph (WSW)    
Max Wind Speed 24 mph    
Max Gust Speed 24 mph    
Visibility 10 miles    
Events Rain , Thunderstorm    
Averages and records for this station are not official NWS values.
T = Trace of Precipitation, MM = Missing Value Source: NWS Daily Summary

Daily Weather History Graph

Daily Weather History Graph

Search for Another Location

Airport or City:

Trip Planner

Search our weather history database for the weather conditions in past years. The results will help you decide how hot, cold, wet, or windy it might be!

Date:

Astronomy

Sep. 03, 2013 Rise Set
Actual Time 6:35 AM MDT 7:31 PM MDT
Civil Twilight 6:07 AM MDT 7:59 PM MDT
Nautical Twilight 5:34 AM MDT 8:31 PM MDT
Astronomical Twilight 5:01 AM MDT 9:05 PM MDT
Moon 4:51 AM MDT (9/3) 6:20 PM MDT (9/3)
Length of Visible Light 13h 51m
Length of Day
12h 56m
Waning Crescent, 3% of the Moon is Illuminated
Sep 3
Waning Crescent
Sep 5
New
Sep 12
First Quarter
Sep 19
Full
Sep 26
Last Quarter

Hourly Weather History & Observations

Time (MDT) Temp. Dew Point Humidity Pressure Visibility Wind Dir Wind Speed Gust Speed Precip Events Conditions
12:14 AM 55.4 °F 37.4 °F 51% 30.69 in 10.0 mi WSW 4.6 mph - N/A   Mostly Cloudy
12:34 AM 53.6 °F 39.2 °F 58% 30.69 in 10.0 mi WSW 8.1 mph - N/A   Overcast
12:54 AM 53.6 °F 39.2 °F 58% 30.70 in 10.0 mi West 11.5 mph - N/A   Mostly Cloudy
1:14 AM 53.6 °F 41.0 °F 62% 30.70 in 10.0 mi West 9.2 mph - N/A   Clear
1:34 AM 53.6 °F 41.0 °F 62% 30.70 in 10.0 mi WSW 6.9 mph - N/A   Scattered Clouds
1:54 AM 53.6 °F 41.0 °F 62% 30.70 in 10.0 mi West 10.4 mph 17.3 mph N/A   Scattered Clouds
2:14 AM 53.6 °F 41.0 °F 62% 30.70 in 10.0 mi West 13.8 mph 17.3 mph N/A   Clear
2:34 AM 53.6 °F 42.8 °F 67% 30.69 in 10.0 mi West 13.8 mph - N/A   Clear
2:54 AM 53.6 °F 41.0 °F 62% 30.69 in 10.0 mi WSW 5.8 mph 9.2 mph N/A   Clear
3:14 AM 53.6 °F 41.0 °F 62% 30.69 in 10.0 mi West 13.8 mph 19.6 mph N/A   Clear
3:34 AM 53.6 °F 41.0 °F 62% 30.69 in 10.0 mi West 15.0 mph 21.9 mph N/A   Clear
3:54 AM 53.6 °F 41.0 °F 62% 30.69 in 10.0 mi West 18.4 mph - N/A   Clear
4:14 AM 53.6 °F 41.0 °F 62% 30.69 in 10.0 mi West 18.4 mph - N/A   Clear
4:34 AM 53.6 °F 42.8 °F 67% 30.69 in 10.0 mi West 16.1 mph 19.6 mph N/A   Clear
4:54 AM 53.6 °F 42.8 °F 67% 30.69 in 10.0 mi West 17.3 mph - N/A   Clear
5:14 AM 53.6 °F 42.8 °F 67% 30.70 in 10.0 mi West 16.1 mph - N/A   Clear
5:34 AM 53.6 °F 42.8 °F 67% 30.71 in 10.0 mi West 9.2 mph - N/A   Clear
5:54 AM 53.6 °F 42.8 °F 67% 30.71 in 10.0 mi West 16.1 mph - N/A   Scattered Clouds
6:14 AM 53.6 °F 44.6 °F 72% 30.71 in 10.0 mi WSW 8.1 mph - N/A   Clear
6:34 AM 53.6 °F 42.8 °F 67% 30.72 in 10.0 mi West 13.8 mph - N/A   Clear
6:54 AM 53.6 °F 44.6 °F 72% 30.72 in 10.0 mi West 8.1 mph - N/A   Clear
7:14 AM 53.6 °F 44.6 °F 72% 30.72 in 10.0 mi WSW 6.9 mph - N/A   Scattered Clouds
7:34 AM 53.6 °F 44.6 °F 72% 30.73 in 10.0 mi West 6.9 mph - N/A   Clear
7:54 AM 53.6 °F 42.8 °F 67% 30.73 in 10.0 mi WSW 8.1 mph - N/A   Clear
8:14 AM 53.6 °F 42.8 °F 67% 30.74 in 10.0 mi West 6.9 mph - N/A   Clear
8:34 AM 53.6 °F 42.8 °F 67% 30.74 in 10.0 mi West 11.5 mph - N/A   Clear
8:54 AM 55.4 °F 44.6 °F 67% 30.75 in 10.0 mi West 10.4 mph - N/A   Clear
9:14 AM 59.0 °F 46.4 °F 63% 30.75 in 10.0 mi West 12.7 mph - N/A   Scattered Clouds
9:34 AM 59.0 °F 44.6 °F 59% 30.75 in 10.0 mi West 15.0 mph - N/A   Scattered Clouds
9:54 AM 59.0 °F 44.6 °F 59% 30.75 in 10.0 mi West 12.7 mph - N/A   Scattered Clouds
10:14 AM 59.0 °F 44.6 °F 59% 30.75 in 10.0 mi West 13.8 mph - N/A   Mostly Cloudy
10:34 AM 59.0 °F 42.8 °F 55% 30.75 in 10.0 mi West 12.7 mph 18.4 mph N/A   Mostly Cloudy
10:54 AM 59.0 °F 39.2 °F 48% 30.76 in 10.0 mi West 15.0 mph 24.2 mph N/A   Mostly Cloudy
11:14 AM 60.8 °F 39.2 °F 45% 30.75 in 10.0 mi West 11.5 mph 20.7 mph N/A   Scattered Clouds
11:34 AM 60.8 °F 37.4 °F 42% 30.75 in 10.0 mi West 18.4 mph 23.0 mph N/A   Scattered Clouds
11:54 AM 60.8 °F 37.4 °F 42% 30.75 in 10.0 mi West 16.1 mph 20.7 mph N/A   Scattered Clouds
12:14 PM 60.8 °F 32.0 °F 34% 30.75 in 10.0 mi West 9.2 mph 18.4 mph N/A   Clear
12:34 PM 62.6 °F 33.8 °F 34% 30.75 in 10.0 mi West 11.5 mph - N/A   Clear
12:54 PM 64.4 °F 37.4 °F 37% 30.75 in 10.0 mi West 15.0 mph 19.6 mph N/A   Scattered Clouds
1:14 PM 62.6 °F 35.6 °F 37% 30.74 in 10.0 mi West 8.1 mph - N/A   Mostly Cloudy
1:34 PM 62.6 °F 33.8 °F 34% 30.74 in 10.0 mi West 8.1 mph 19.6 mph N/A   Scattered Clouds
1:54 PM 64.4 °F 33.8 °F 32% 30.74 in 10.0 mi West 8.1 mph - N/A   Scattered Clouds
2:14 PM 62.6 °F 35.6 °F 37% 30.73 in 10.0 mi West 15.0 mph 19.6 mph N/A   Scattered Clouds
2:34 PM 64.4 °F 35.6 °F 34% 30.73 in 10.0 mi West 17.3 mph 24.2 mph N/A   Mostly Cloudy
2:54 PM 64.4 °F 35.6 °F 34% 30.72 in 10.0 mi West 10.4 mph 17.3 mph N/A   Mostly Cloudy
3:14 PM 64.4 °F 35.6 °F 34% 30.72 in 10.0 mi West 13.8 mph - N/A   Overcast
3:34 PM 66.2 °F 33.8 °F 30% 30.71 in 10.0 mi WNW 15.0 mph 23.0 mph N/A   Mostly Cloudy
3:54 PM 64.4 °F 33.8 °F 32% 30.72 in 10.0 mi West 12.7 mph - N/A   Mostly Cloudy
4:14 PM 64.4 °F 33.8 °F 32% 30.71 in 10.0 mi West 10.4 mph 24.2 mph N/A   Overcast
4:34 PM 64.4 °F 35.6 °F 34% 30.71 in 10.0 mi West 12.7 mph - N/A   Overcast
4:54 PM 66.2 °F 33.8 °F 30% 30.71 in 10.0 mi West 10.4 mph - N/A   Scattered Clouds
5:14 PM 64.4 °F 35.6 °F 34% 30.71 in 10.0 mi SSW 4.6 mph - N/A   Scattered Clouds
5:34 PM 64.4 °F 37.4 °F 37% 30.72 in 10.0 mi West 5.8 mph - N/A   Overcast
5:54 PM 64.4 °F 41.0 °F 42% 30.71 in 10.0 mi West 4.6 mph - N/A   Overcast
6:14 PM 62.6 °F 39.2 °F 42% 30.71 in 10.0 mi SSE 16.1 mph - N/A Rain Rain
6:34 PM 59.0 °F 42.8 °F 55% 30.71 in 10.0 mi South 18.4 mph - N/A Rain , Thunderstorm Light Thunderstorms and Rain
6:54 PM 59.0 °F 41.0 °F 51% 30.70 in 10.0 mi SSE 20.7 mph - 0.01 in Rain , Thunderstorm Light Thunderstorms and Rain
7:14 PM 59.0 °F 42.8 °F 55% 30.70 in 10.0 mi South 24.2 mph - N/A Thunderstorm Overcast
7:34 PM 55.4 °F 42.8 °F 63% 30.73 in 10.0 mi South 21.9 mph - N/A Rain , Thunderstorm Light Thunderstorms and Rain
7:54 PM 53.6 °F 42.8 °F 67% 30.74 in 10.0 mi South 19.6 mph - 0.01 in Rain Light Rain
8:14 PM 53.6 °F 44.6 °F 72% 30.75 in 5.0 mi South 15.0 mph 18.4 mph 0.03 in Rain , Thunderstorm Rain
8:34 PM 53.6 °F 44.6 °F 72% 30.76 in 5.0 mi South 9.2 mph - 0.06 in Rain , Thunderstorm Heavy Thunderstorms and Rain
8:54 PM 53.6 °F 44.6 °F 72% 30.77 in 3.0 mi South 8.1 mph - 0.12 in Rain , Thunderstorm Thunderstorms and Rain
9:14 PM 53.6 °F 44.6 °F 72% 30.77 in 7.0 mi West 6.9 mph - 0.02 in Rain Rain
9:34 PM 51.8 °F 42.8 °F 71% 30.78 in 3.0 mi SW 5.8 mph - 0.06 in Rain Light Rain
9:54 PM 53.6 °F 44.6 °F 72% 30.78 in 5.0 mi South 6.9 mph - 0.09 in Rain Light Rain
10:14 PM 53.6 °F 44.6 °F 72% 30.77 in 10.0 mi South 8.1 mph - 0.01 in   Light Drizzle
10:34 PM 53.6 °F 44.6 °F 72% 30.76 in 10.0 mi SSE 11.5 mph - 0.01 in Rain Light Rain
10:54 PM 53.6 °F 42.8 °F 67% 30.76 in 10.0 mi South 16.1 mph - 0.01 in   Overcast
11:14 PM 53.6 °F 42.8 °F 67% 30.76 in 10.0 mi South 13.8 mph - N/A   Overcast
11:34 PM 53.6 °F 41.0 °F 62% 30.75 in 10.0 mi South 13.8 mph - N/A   Scattered Clouds
11:54 PM 53.6 °F 41.0 °F 62% 30.75 in 10.0 mi South 11.5 mph - N/A   Clear